User: anonymous
Location: Unspecified
(0.0000°N, 0.0000°E)
Time: 04:24:08
(UTC+00:00)
Language:

AUBIESAT-1 - Orbit

View from above orbital plane
View from above orbital plane
View from above satellite
View from above satellite

Ground track
Ground track

The orbit data is extracted from the following two-line orbital elements,

1 37854U 11061E   14244.77409751  .00008202  00000-0  53842-3 0  8829
2 37854 101.7118 313.1084 0212312 191.7788 318.1229 14.91476690154126
Epoch (UTC): 01 September 2014 18:34:42
Eccentricity: 0.0212312
inclination: 101.7118°
perigee height: 445 km
apogee height: 741 km
right ascension of ascending node: 313.1084°
argument of perigee: 191.7788°
revolutions per day: 14.91476690
mean anomaly at epoch: 318.1229°
orbit number at epoch: 15412

The dashed part of the orbit path shows where the satellite is in the earth's shadow,  

DLR